TURKSAT 3A (33056 NORAD) Tracking and Keplerian Element Data

This shows tracking and keplerian element data for the satellite.

Feedback or suggestion? Click here.




ElementValue
Catalog33056
NameTURKSAT 3A
Epoch Orbit6108
Epoch Day34.83478736
Epoch Year2025
RAAN93.7222
Inclination0.0495
Eccentricity0.0003349
Argument of Perigee235.1621
Mean Anonmoly147.8486
Mean Motion1.00272697
Decay Rate1.5E-06
L11 33056U 08030B 25034.83478736 .00000150 00000+0 00000+0 0 9992
L22 33056 0.0495 93.7222 0003349 235.1621 147.8486 1.00272697 61088



Live tracking and technical data element details for TURKSAT 3A (NORAD 33056). TURKSAT 3A can be tracked NOW for your location showing map with azimuth and elevation plus other details from your city location.







IsCatalogInMostPopularTable: catalog: 33056, numindb: 393
Update: records affected: 1



GetName: 33056 TURKSAT 3A

Hit Count: updated at: Fri, 16 May 2025 10:53:36 GMT